Location: Glens Falls
(43.3090°N, 73.6440°W)
Time: 23:41:29
(UTC-04:00)

Cosmos 1674 Rocket - Pass Details

Date: 24 February 2018
Orbit: 602 x 631 km, 82.5° (Epoch: 21 June)

Event Time Altitude Azimuth Distance (km) Brightness Sun altitude
Rises 18:12:47 0° 350° (N) 2,878 7.1 -7.2°
Reaches altitude 10° 18:15:01 10° 349° (NNW) 1,965 6.2 -7.6°
Maximum altitude 18:19:21 76° 264° (W) 628 3.8 -8.4°
Drops below altitude 10° 18:23:38 10° 179° (S) 1,941 6.2 -9.2°
Sets 18:25:49 0° 178° (S) 2,838 7.0 -9.6°
